User: anonymous   Login
Location: Edoum�
(0.9447°N, 10.6482°E)
Time: 15:32:39
(UTC+00:00)
Language:

GPS 2-15 Rocket1 - Orbit

View from above orbital plane
View from above orbital plane
View from above satellite
View from above satellite

Ground track
Ground track

The orbit data is extracted from the following two-line orbital elements,

1 22109U 92058B   20225.14474413  .00000461  00000-0  13223-4 0  9993
2 22109  19.7815 229.3516 0036664  19.5447 340.6365 14.73583034500448
Epoch (UTC): 12 August 2020 03:28:25
Eccentricity: 0.0036664
inclination: 19.7815°
perigee height: 624 km
apogee height: 675 km
right ascension of ascending node: 229.3516°
argument of perigee: 19.5447°
revolutions per day: 14.73583034
mean anomaly at epoch: 340.6365°
orbit number at epoch: 50044

The dashed part of the orbit path shows where the satellite is in the earth's shadow,  

DLR